SWA300 KBWI-KSDF

Flight info

Callsign SWA300
Flight time N/A
Altitude 38000
Route FOXHL1 OTTTO Q68 YOCKY LEDDL1
Aircraft B737/M-SADE2E3GIJ4RWZ/LB1D1

Departure

Time 2026-05-03 21:14
Airport Baltimore/Washington International Thurgood Marshall Airport (KBWI)

Arrival

Time N/A
Airport Louisville Muhammad Ali International Airport (KSDF)
Time Latitude Longitude Altitude Speed Heading
2026-05-03 20:31 39.17678 -76.66880 156 ft 0 kts 244°
2026-05-03 21:03 39.17685 -76.66861 149 ft 3 kts 244°
2026-05-03 21:03 39.17693 -76.66839 156 ft 3 kts 236°
2026-05-03 21:03 39.17708 -76.66828 156 ft 3 kts 157°
2026-05-03 21:03 39.17712 -76.66830 156 ft 0 kts 152°
2026-05-03 21:06 39.17690 -76.66809 156 ft 9 kts 142°
2026-05-03 21:07 39.17621 -76.66779 156 ft 12 kts 180°
2026-05-03 21:07 39.17536 -76.66751 156 ft 14 kts 125°
2026-05-03 21:07 39.17520 -76.66628 155 ft 14 kts 92°
2026-05-03 21:07 39.17564 -76.66513 155 ft 16 kts 73°
2026-05-03 21:08 39.17524 -76.66375 154 ft 18 kts 121°
2026-05-03 21:08 39.17461 -76.66229 154 ft 19 kts 103°
2026-05-03 21:08 39.17448 -76.66067 153 ft 18 kts 95°
2026-05-03 21:08 39.17438 -76.65906 153 ft 17 kts 95°
2026-05-03 21:09 39.17428 -76.65755 153 ft 17 kts 94°
2026-05-03 21:09 39.17422 -76.65636 153 ft 10 kts 94°
2026-05-03 21:09 39.17419 -76.65604 153 ft 0 kts 99°
2026-05-03 21:10 39.17412 -76.65565 153 ft 14 kts 110°
2026-05-03 21:11 39.17374 -76.65523 153 ft 0 kts 168°
2026-05-03 21:12 39.17366 -76.65522 154 ft 9 kts 173°
2026-05-03 21:12 39.17286 -76.65579 154 ft 16 kts 253°
2026-05-03 21:13 39.17283 -76.65610 153 ft 0 kts 269°
2026-05-03 21:13 39.17288 -76.65717 153 ft 34 kts 274°
2026-05-03 21:14 39.17326 -76.66356 153 ft 107 kts 274°
2026-05-03 21:14 39.17389 -76.67559 280 ft 152 kts 273°
2026-05-03 21:14 39.17445 -76.68972 838 ft 166 kts 276°
2026-05-03 21:14 39.17553 -76.70520 1553 ft 179 kts 277°
2026-05-03 21:15 39.17644 -76.72145 2391 ft 184 kts 276°
2026-05-03 21:15 39.17730 -76.73779 3076 ft 191 kts 276°
2026-05-03 21:15 39.17828 -76.75578 3635 ft 203 kts 278°
2026-05-03 21:15 39.18125 -76.77317 4512 ft 201 kts 286°
2026-05-03 21:16 39.18482 -76.79080 5240 ft 208 kts 285°
2026-05-03 21:16 39.18864 -76.80978 5574 ft 236 kts 285°
2026-05-03 21:16 39.19284 -76.83085 6452 ft 248 kts 285°
2026-05-03 21:16 39.19708 -76.85238 7541 ft 249 kts 286°
2026-05-03 21:17 39.20137 -76.87425 8537 ft 255 kts 286°
2026-05-03 21:17 39.20434 -76.88942 9176 ft 260 kts 286°
2026-05-03 21:17 39.21021 -76.91959 10512 ft 264 kts 286°
2026-05-03 21:17 39.21467 -76.94260 11545 ft 264 kts 286°
2026-05-03 21:18 39.21910 -76.96565 12614 ft 264 kts 284°
2026-05-03 21:18 39.22113 -76.98935 13614 ft 268 kts 274°
2026-05-03 21:18 39.22125 -77.01355 14505 ft 271 kts 272°
2026-05-03 21:18 39.22126 -77.03802 15401 ft 273 kts 272°
2026-05-03 21:19 39.22144 -77.06251 16317 ft 274 kts 273°
2026-05-03 21:19 39.22172 -77.08721 17211 ft 277 kts 272°
2026-05-03 21:19 39.22199 -77.11221 18054 ft 283 kts 270°
2026-05-03 21:19 39.21768 -77.13808 18268 ft 312 kts 251°
2026-05-03 21:20 39.20541 -77.16268 18489 ft 342 kts 233°
2026-05-03 21:20 39.18893 -77.18507 18960 ft 355 kts 231°
2026-05-03 21:20 39.17101 -77.20834 19174 ft 374 kts 230°
2026-05-03 21:20 39.15237 -77.23233 19711 ft 381 kts 231°
2026-05-03 21:21 39.13384 -77.25631 20362 ft 384 kts 231°
2026-05-03 21:21 39.11497 -77.28093 21071 ft 387 kts 231°
2026-05-03 21:21 39.09608 -77.30575 21721 ft 389 kts 232°
2026-05-03 21:21 39.07713 -77.33070 22397 ft 392 kts 232°
2026-05-03 21:22 39.06447 -77.34737 22798 ft 394 kts 233°
2026-05-03 21:22 39.04782 -77.37502 23356 ft 387 kts 247°
2026-05-03 21:22 39.03779 -77.40665 23916 ft 381 kts 258°
2026-05-03 21:22 39.03027 -77.43939 24478 ft 382 kts 259°
2026-05-03 21:23 39.02309 -77.47210 25008 ft 383 kts 259°
2026-05-03 21:23 39.01586 -77.50523 25519 ft 385 kts 259°
2026-05-03 21:23 39.00852 -77.53849 26013 ft 388 kts 258°
2026-05-03 21:23 39.00103 -77.57193 26504 ft 390 kts 258°
2026-05-03 21:24 38.99343 -77.60552 26959 ft 392 kts 258°
2026-05-03 21:24 38.98574 -77.63919 27410 ft 394 kts 258°
2026-05-03 21:24 38.97797 -77.67310 27853 ft 396 kts 258°
2026-05-03 21:24 38.97013 -77.70715 28289 ft 398 kts 258°
2026-05-03 21:25 38.96225 -77.74136 28703 ft 400 kts 258°
2026-05-03 21:25 38.95439 -77.77539 29086 ft 403 kts 258°
2026-05-03 21:25 38.94643 -77.80982 29555 ft 403 kts 258°
2026-05-03 21:25 38.93845 -77.84422 30159 ft 397 kts 258°
2026-05-03 21:26 38.93063 -77.87777 30986 ft 387 kts 258°
2026-05-03 21:26 38.92298 -77.91066 31540 ft 384 kts 258°
2026-05-03 21:26 38.91535 -77.94350 31960 ft 383 kts 258°
2026-05-03 21:26 38.90771 -77.97640 32308 ft 384 kts 258°
2026-05-03 21:27 38.90007 -78.00925 32640 ft 385 kts 258°
2026-05-03 21:27 38.89240 -78.04213 33041 ft 383 kts 258°
2026-05-03 21:27 38.88476 -78.07480 33510 ft 381 kts 258°
2026-05-03 21:27 38.87718 -78.10719 33975 ft 378 kts 258°
2026-05-03 21:28 38.86962 -78.13944 34295 ft 377 kts 258°
2026-05-03 21:28 38.86203 -78.17179 34492 ft 380 kts 258°
2026-05-03 21:28 38.85505 -78.20450 34647 ft 380 kts 263°
2026-05-03 21:28 38.85325 -78.23809 34813 ft 378 kts 272°
2026-05-03 21:29 38.85372 -78.27190 35073 ft 379 kts 272°
2026-05-03 21:29 38.85399 -78.30572 35312 ft 379 kts 271°
2026-05-03 21:29 38.85406 -78.33928 35495 ft 382 kts 271°
2026-05-03 21:29 38.85320 -78.37384 35682 ft 384 kts 266°
2026-05-03 21:30 38.84905 -78.40736 35913 ft 386 kts 261°
2026-05-03 21:30 38.84336 -78.44120 36017 ft 390 kts 261°
2026-05-03 21:30 38.83187 -78.50930 36032 ft 390 kts 261°
2026-05-03 21:31 38.82058 -78.57670 36036 ft 382 kts 261°
2026-05-03 21:31 38.80950 -78.64331 36056 ft 383 kts 261°
2026-05-03 21:32 38.79835 -78.71030 36027 ft 384 kts 261°
2026-05-03 21:32 38.78715 -78.77732 36062 ft 384 kts 261°
2026-05-03 21:33 38.77591 -78.84434 36067 ft 385 kts 261°
2026-05-03 21:33 38.76460 -78.91146 36069 ft 385 kts 261°
2026-05-03 21:34 38.75332 -78.97818 36064 ft 385 kts 261°
2026-05-03 21:34 38.74196 -79.04516 36062 ft 384 kts 261°
2026-05-03 21:35 38.73059 -79.11193 36080 ft 382 kts 261°
2026-05-03 21:35 38.71925 -79.17833 36080 ft 381 kts 261°
2026-05-03 21:36 38.70792 -79.24443 36079 ft 379 kts 261°
2026-05-03 21:36 38.69702 -79.31034 36087 ft 378 kts 261°
2026-05-03 21:37 38.68632 -79.37625 36087 ft 377 kts 261°
2026-05-03 21:37 38.67556 -79.44198 36090 ft 377 kts 261°
2026-05-03 21:38 38.66479 -79.50741 36090 ft 378 kts 262°
2026-05-03 21:38 38.65389 -79.57328 36049 ft 378 kts 261°
2026-05-03 21:39 38.64299 -79.63898 36102 ft 377 kts 261°
2026-05-03 21:39 38.63201 -79.70462 36094 ft 378 kts 261°
2026-05-03 21:40 38.62019 -79.77033 36100 ft 379 kts 260°
2026-05-03 21:40 38.60816 -79.83599 36095 ft 379 kts 260°
2026-05-03 21:41 38.59625 -79.90125 36131 ft 379 kts 260°
2026-05-03 21:41 38.58425 -79.96700 36110 ft 379 kts 260°
2026-05-03 21:42 38.57226 -80.03264 36118 ft 382 kts 260°
2026-05-03 21:42 38.56008 -80.09921 36117 ft 385 kts 261°
2026-05-03 21:43 38.55536 -80.16696 36105 ft 381 kts 274°
2026-05-03 21:43 38.55894 -80.23403 36119 ft 381 kts 274°
2026-05-03 21:44 38.56262 -80.30160 36112 ft 381 kts 274°
2026-05-03 21:44 38.56611 -80.36927 36105 ft 382 kts 274°
2026-05-03 21:45 38.56950 -80.43703 36115 ft 382 kts 274°
2026-05-03 21:45 38.57284 -80.50468 36093 ft 381 kts 274°
2026-05-03 21:46 38.57612 -80.57216 36105 ft 380 kts 273°
2026-05-03 21:46 38.57283 -80.63941 36097 ft 381 kts 261°
2026-05-03 21:47 38.56025 -80.70547 36110 ft 383 kts 259°
2026-05-03 21:47 38.54736 -80.77116 36099 ft 384 kts 259°
2026-05-03 21:48 38.53446 -80.83731 36103 ft 383 kts 259°
2026-05-03 21:48 38.52165 -80.90330 36094 ft 383 kts 259°
2026-05-03 21:49 38.50881 -80.96937 36093 ft 383 kts 259°
2026-05-03 21:49 38.49594 -81.03542 36105 ft 384 kts 259°
2026-05-03 21:50 38.48302 -81.10153 36096 ft 384 kts 259°
2026-05-03 21:50 38.47001 -81.16781 36101 ft 385 kts 259°
2026-05-03 21:51 38.45698 -81.23404 36097 ft 385 kts 259°
2026-05-03 21:51 38.44397 -81.29995 36086 ft 385 kts 259°
2026-05-03 21:52 38.43084 -81.36625 36099 ft 386 kts 259°
2026-05-03 21:52 38.41770 -81.43238 36102 ft 387 kts 259°
2026-05-03 21:53 38.40440 -81.49913 36096 ft 388 kts 259°
2026-05-03 21:53 38.39107 -81.56579 36076 ft 388 kts 259°
2026-05-03 21:54 38.37773 -81.63232 36075 ft 388 kts 259°
2026-05-03 21:54 38.36442 -81.69853 36057 ft 388 kts 259°
2026-05-03 21:55 38.35096 -81.76503 36066 ft 388 kts 258°
2026-05-03 21:55 38.33348 -81.83056 36080 ft 391 kts 254°
2026-05-03 21:56 38.31489 -81.89568 36089 ft 392 kts 254°
2026-05-03 21:56 38.29629 -81.96116 36094 ft 393 kts 254°
2026-05-03 21:57 38.27777 -82.02662 36092 ft 393 kts 254°
2026-05-03 21:57 38.25933 -82.09176 36102 ft 394 kts 254°
2026-05-03 21:58 38.24163 -82.15419 36094 ft 394 kts 254°
2026-05-03 21:59 38.23888 -82.16389 36089 ft 394 kts 254°
2026-05-03 21:59 38.22025 -82.22939 36090 ft 393 kts 254°
2026-05-03 22:00 38.20165 -82.29467 36103 ft 393 kts 254°
2026-05-03 22:00 38.18298 -82.36004 36100 ft 393 kts 254°
2026-05-03 22:01 38.16445 -82.42495 36089 ft 393 kts 254°
2026-05-03 22:01 38.14572 -82.49046 36097 ft 394 kts 254°
2026-05-03 22:02 38.12695 -82.55593 36079 ft 394 kts 254°
2026-05-03 22:02 38.10815 -82.62138 36082 ft 395 kts 254°
2026-05-03 22:03 38.08929 -82.68686 36086 ft 395 kts 254°
2026-05-03 22:03 38.07039 -82.75233 36088 ft 395 kts 254°
2026-05-03 22:04 38.05144 -82.81779 36090 ft 395 kts 254°
2026-05-03 22:04 38.03257 -82.88280 36097 ft 395 kts 254°
2026-05-03 22:05 38.01355 -82.94823 36102 ft 395 kts 254°
2026-05-03 22:05 37.99447 -83.01367 36104 ft 395 kts 254°
2026-05-03 22:06 37.97538 -83.07899 36097 ft 395 kts 253°
2026-05-03 22:06 37.95639 -83.14381 36107 ft 395 kts 253°
2026-05-03 22:07 37.93721 -83.20911 36101 ft 396 kts 253°
2026-05-03 22:07 37.91798 -83.27444 36105 ft 396 kts 253°
2026-05-03 22:08 37.89871 -83.33974 36100 ft 396 kts 253°
2026-05-03 22:08 37.88267 -83.39400 36099 ft 396 kts 253°
2026-05-03 22:09 37.86334 -83.45922 36105 ft 396 kts 253°
2026-05-03 22:10 37.83429 -83.55694 36097 ft 395 kts 253°
2026-05-03 22:10 37.81486 -83.62210 36106 ft 395 kts 253°
2026-05-03 22:11 37.79542 -83.68716 36104 ft 395 kts 253°
2026-05-03 22:11 37.77606 -83.75179 36095 ft 395 kts 253°
2026-05-03 22:12 37.75659 -83.81669 36100 ft 395 kts 253°
2026-05-03 22:12 37.73701 -83.88175 36103 ft 396 kts 253°
2026-05-03 22:13 37.71736 -83.94688 36103 ft 397 kts 253°
2026-05-03 22:13 37.69761 -84.01223 36101 ft 398 kts 253°
2026-05-03 22:14 37.67787 -84.07739 36099 ft 399 kts 253°
2026-05-03 22:14 37.66795 -84.11009 35808 ft 403 kts 253°
2026-05-03 22:14 37.65786 -84.14331 35179 ft 403 kts 253°
2026-05-03 22:14 37.64805 -84.17637 34409 ft 401 kts 255°
2026-05-03 22:15 37.63920 -84.20956 33557 ft 399 kts 256°
2026-05-03 22:15 37.63075 -84.24292 32823 ft 396 kts 257°
2026-05-03 22:15 37.62250 -84.27576 32190 ft 391 kts 257°
2026-05-03 22:15 37.61429 -84.30823 31615 ft 386 kts 257°
2026-05-03 22:16 37.60610 -84.34028 31032 ft 382 kts 257°
2026-05-03 22:16 37.59793 -84.37203 30467 ft 378 kts 257°
2026-05-03 22:16 37.58991 -84.40298 29877 ft 375 kts 257°
2026-05-03 22:16 37.58182 -84.43413 29217 ft 371 kts 257°
2026-05-03 22:17 37.57380 -84.46493 28670 ft 367 kts 256°
2026-05-03 22:17 37.56583 -84.49546 28097 ft 367 kts 256°
2026-05-03 22:17 37.55768 -84.52684 27515 ft 387 kts 256°
2026-05-03 22:17 37.54915 -84.55966 26871 ft 396 kts 256°
2026-05-03 22:18 37.54050 -84.59266 26229 ft 395 kts 256°
2026-05-03 22:18 37.53187 -84.62542 25594 ft 392 kts 256°
2026-05-03 22:18 37.52328 -84.65798 24987 ft 389 kts 256°
2026-05-03 22:18 37.51488 -84.68987 24300 ft 389 kts 256°
2026-05-03 22:19 37.50635 -84.72227 23667 ft 389 kts 256°
2026-05-03 22:19 37.49784 -84.75455 22949 ft 388 kts 256°
2026-05-03 22:19 37.48935 -84.78672 22287 ft 385 kts 256°
2026-05-03 22:19 37.48094 -84.81853 21687 ft 380 kts 256°
2026-05-03 22:20 37.47263 -84.84989 21075 ft 375 kts 256°
2026-05-03 22:20 37.46542 -84.88107 20476 ft 364 kts 265°
2026-05-03 22:20 37.46574 -84.91199 19963 ft 354 kts 281°
2026-05-03 22:20 37.47271 -84.94154 19389 ft 352 kts 293°
2026-05-03 22:21 37.48444 -84.96852 18792 ft 352 kts 305°
2026-05-03 22:21 37.50125 -84.99095 18211 ft 353 kts 316°
2026-05-03 22:21 37.52012 -85.01082 17568 ft 352 kts 318°
2026-05-03 22:21 37.53900 -85.03035 16953 ft 350 kts 317°
2026-05-03 22:22 37.55772 -85.05003 16338 ft 348 kts 317°
2026-05-03 22:22 37.57676 -85.06840 16044 ft 340 kts 326°
2026-05-03 22:22 37.59823 -85.07972 16064 ft 330 kts 338°
2026-05-03 22:22 37.62037 -85.08826 16250 ft 335 kts 339°
2026-05-03 22:23 37.64263 -85.09649 16827 ft 333 kts 339°
2026-05-03 22:23 37.66481 -85.10478 17049 ft 332 kts 338°
2026-05-03 22:23 37.68688 -85.11317 17045 ft 329 kts 338°
2026-05-03 22:23 37.70871 -85.12157 17049 ft 329 kts 338°
2026-05-03 22:24 37.73064 -85.13005 17044 ft 329 kts 338°
2026-05-03 22:24 37.75269 -85.13823 17044 ft 330 kts 339°
2026-05-03 22:24 37.77440 -85.14594 16967 ft 324 kts 339°
2026-05-03 22:24 37.79587 -85.15352 16389 ft 317 kts 339°
2026-05-03 22:25 37.81709 -85.16109 15459 ft 317 kts 339°
2026-05-03 22:25 37.83834 -85.16870 14550 ft 318 kts 340°
2026-05-03 22:25 37.86055 -85.17041 13720 ft 330 kts
2026-05-03 22:25 37.88158 -85.15793 12905 ft 345 kts 33°
2026-05-03 22:26 37.89648 -85.13363 12091 ft 358 kts 61°
2026-05-03 22:26 37.90131 -85.10266 11461 ft 368 kts 92°